Terminal Aerodrome Forecast
Issued by NWS Newport/Morehead City, NC

Home | Current Version | Previous Version | Graphics & Text | Print | Product List | Glossary On
Versions: 1 2 3 4 5 6 7 8 9 10 11 12 13 14 15 16 17
033
FTUS42 KMHX 301311 AAA
TAFEWN
TAF AMD
KEWN 301311Z 3013/0112 22006KT P6SM BKN007
     FM301400 20010G17KT P6SM SCT040
     FM302300 18006KT P6SM SKC
     FM010600 19006KT P6SM SCT006 OVC015=

USA.gov is the U.S. government's official web portal to all federal, state and local government web resources and services.